Location: Monroe
(41.9160°N, 83.3980°W)
Time: 12:30:54
(UTC-05:00)

ISS - Visible Passes

Search period start: 22 February 2017 00:00
Search period end: 04 March 2017 00:00
Orbit: 399 x 408 km, 51.6° (Epoch: 23 February)

Date Brightness Start Highest point End Pass type
(mag) Time Alt. Az. Time Alt. Az. Time Alt. Az.
01 Mar -0.7 06:04:50 10° S 06:07:16 19° SE 06:09:44 10° E visible
02 Mar -0.1 05:14:30 10° SE 05:14:55 10° SE 05:15:20 10° ESE visible
03 Mar -2.3 05:55:30 12° SSW 05:58:19 45° SE 06:01:30 10° ENE visible
